Location: Conflandey
(47.7287°N, 6.0456°E)
Time: 03:13:50
(UTC+00:00)

Lacrosse 4 Rocket - Pass Details

Date: 24 October 2021
Orbit: 538 x 619 km, 68.0° (Epoch: 28 November)

Event Time Altitude Azimuth Distance (km) Brightness Sun altitude
Rises 17:26:35 0° 330° (NNW) 2,806 5.3 -10.0°
Reaches altitude 10° 17:28:50 10° 335° (NNW) 1,917 4.3 -10.3°
Maximum altitude 17:33:05 56° 54° (NE) 711 1.6 -11.0°
Drops below altitude 10° 17:37:24 10° 133° (SE) 1,950 3.7 -11.8°
Enters shadow 17:38:34 - 136° (SE) 2,410 4.2 -12.0°
